Location: Rio Tanui
(39.9167°N, 8.5167°E)
Time: 02:38:24
(UTC+00:00)

In-Cosmos 22 Rocket - Pass Details

Date: 08 February 2023
Orbit: 789 x 888 km, 81.2° (Epoch: 01 April)

Event Time Altitude Azimuth Distance (km) Brightness Sun altitude
Rises 17:10:08 0° 185° (S) 3,467 7.7 -3.9°
Reaches altitude 10° 17:12:34 10° 184° (S) 2,538 7.0 -4.4°
Maximum altitude 17:18:22 83° 98° (E) 900 4.3 -5.4°
Drops below altitude 10° 17:24:13 10° 11° (N) 2,555 6.5 -6.5°
Sets 17:26:40 0° 11° (N) 3,491 7.2 -7.0°
